Temperature
22 24 25 25 25 25 23 21 21 22 22 22 22 21 22 22 22 22 22 22 22 22 22 22 22 21 21 21 20 20 20 19 19 19 19 18 18 18 18 18 17 17 17 17
23 24 25 25 25 25 25 24 23 23 22 22 22 22 22 21 21 21 21 22 22 21 21 21 21 21 21 20 20 20 19 19 19 18 18 18 18 18 17 17 17 16 16 16
20 22 24 23 24 24 25 24 24 23 22 21 21 21 21 21 21 21 21 21 21 21 21 21 20 20 20 20 19 19 19 18 18 18 18 18 17 17 17 16 16 16 16 16
19 22 22 22 23 24 24 24 23 23 22 22 21 21 22 22 22 21 21 21 21 20 20 20 20 20 19 19 19 18 18 18 18 17 17 17 17 16 16 16 16 16 15 15
17 19 21 22 23 23 23 22 23 22 21 21 21 20 20 21 22 21 21 21 20 20 20 19 19 19 19 18 18 18 18 17 17 17 17 16 16 16 16 16 15 15 15 15
17 20 20 21 22 23 22 21 21 21 20 20 21 19 18 20 21 21 20 20 20 19 19 19 18 18 18 18 18 17 17 17 17 16 16 16 16 15 15 15 15 15 15 14
17 19 19 20 21 22 21 20 21 21 21 21 20 20 19 20 20 20 20 19 19 19 19 18 18 18 18 17 17 17 16 16 16 16 16 15 15 15 15 15 15 14 14 14
16 18 18 19 20 19 18 20 21 21 21 21 20 19 19 20 20 19 19 19 18 18 18 17 17 18 17 17 16 16 16 16 15 15 15 15 15 14 14 14 14 14 14 13
16 16 17 18 19 19 20 20 20 20 21 21 19 18 19 19 19 18 18 18 18 18 17 17 17 17 17 16 16 16 15 15 15 15 14 14 14 14 14 14 13 13 13 13
15 16 17 18 19 20 20 20 21 21 20 20 19 18 18 18 18 18 17 17 17 17 17 16 16 16 16 16 15 15 15 14 14 14 14 14 14 14 13 13 13 13 12 12
15 16 17 18 19 19 20 20 20 20 20 19 19 18 18 17 17 17 17 17 17 17 16 15 15 15 15 15 15 15 14 14 14 14 14 13 13 13 12 12 12 12 12 11
15 15 15 17 18 19 19 19 19 19 18 18 18 18 17 17 17 16 16 16 16 16 15 15 15 15 14 14 14 14 14 14 13 13 13 13 13 12 11 11 11 11 11 11
17 17 17 17 18 18 18 18 18 18 18 17 17 17 17 17 16 16 16 16 15 15 15 14 14 14 14 14 14 14 14 13 13 13 12 12 12 12 11 10 10 10 10 10
17 17 17 17 17 18 18 18 18 17 17 17 17 16 16 16 16 15 15 15 15 14 14 14 14 13 13 13 13 13 13 13 13 12 12 12 12 11 11 11 10 10 10 10
17 17 16 17 17 17 17 17 17 16 16 16 16 16 16 15 15 15 14 14 14 14 13 13 13 13 13 13 13 13 13 12 12 12 12 11 11 11 10 10 10 10 9 9
16 16 16 16 16 16 16 16 16 15 15 15 15 15 15 15 14 14 13 13 13 13 13 13 13 12 12 12 12 12 12 12 12 11 11 11 11 10 10 10 10 9 9 9
15 15 15 15 15 15 15 15 15 15 15 15 15 15 14 14 13 13 13 13 13 13 12 12 12 12 12 12 12 12 12 11 11 11 11 11 10 10 10 9 9 9 9 8
15 15 15 15 15 15 15 15 15 15 15 14 14 14 14 13 13 13 12 12 12 12 12 12 12 12 12 12 12 12 11 11 11 11 10 10 10 10 9 9 9 9 8 8
15 15 15 15 15 15 15 14 14 14 14 14 14 13 13 13 13 12 12 12 12 11 11 11 11 11 11 11 11 11 11 11 10 10 10 10 10 9 9 9 9 8 8 8
14 14 14 14 14 14 14 14 14 14 13 13 13 13 13 12 12 12 12 11 11 11 11 11 11 11 11 11 11 11 11 10 10 10 10 9 9 9 9 9 8 8 8 7
14 14 14 14 14 14 14 13 13 13 13 13 13 12 12 12 12 11 11 11 10 10 10 10 10 10 10 10 10 10 10 10 10 10 9 9 9 9 8 8 8 8 7 7
13 13 13 13 13 13 13 13 13 12 12 12 12 12 12 11 11 11 11 10 10 10 10 10 10 10 10 10 10 10 10 10 9 9 9 9 9 8 8 8 7 7 7 7
13 13 13 13 13 12 12 12 12 12 12 12 11 11 11 11 11 10 10 10 10 10 10 9 9 9 9 9 9 9 9 9 9 9 9 8 8 8 8 7 7 7 7 7
12 12 12 12 12 12 11 11 11 11 11 11 11 11 11 10 10 10 10 10 9 9 9 9 9 9 9 9 9 9 9 9 9 8 8 8 8 8 7 7 7 7 7 6
11 11 12 11 11 11 11 11 11 10 10 10 10 10 10 10 10 10 9 9 9 9 9 9 9 9 9 9 9 9 8 8 8 8 8 8 7 7 7 7 7 7 6 6
11 11 11 11 11 11 10 10 10 10 10 10 10 10 10 10 9 9 9 9 9 9 9 9 9 9 9 9 8 8 8 8 8 8 8 7 7 7 7 7 7 6 6 6
11 10 10 10 10 10 10 10 10 10 10 10 9 9 9 9 9 9 9 9 9 9 9 9 8 8 8 8 8 8 8 8 8 7 7 7 7 7 7 7 6 6 6 6
Wind_Speed
5 4 3 5 6 7 7 9 9 9 9 9 9 11 10 10 11 11 10 10 10 9 7 7 7 7 7 7 7 7 7 6 5 4 4 4 3 3 3 3 4 4 5 4
2 2 1 2 5 7 7 7 7 6 5 5 7 9 10 12 13 12 11 11 10 10 9 7 7 7 7 6 6 6 7 6 5 5 5 4 4 4 4 5 5 6 5 5
1 4 4 4 6 7 5 5 8 8 7 9 10 12 12 12 12 11 11 10 10 9 8 7 7 7 8 7 7 7 7 6 5 5 6 5 6 6 6 6 6 6 5 5
3 4 2 7 5 4 6 3 6 8 9 13 12 9 8 9 11 10 9 9 8 7 7 7 7 8 8 8 8 8 7 6 6 6 6 6 6 6 5 6 6 5 5 5
4 2 3 6 4 1 5 1 4 10 12 11 13 13 8 5 9 10 10 9 8 8 8 8 8 8 9 9 8 8 7 6 6 7 7 6 6 6 5 6 6 6 6 6
5 4 3 5 7 4 7 1 1 10 14 13 11 7 4 5 9 11 10 9 9 9 9 9 7 8 10 9 9 8 7 6 6 7 7 7 6 6 6 6 7 7 7 7
4 2 4 6 9 3 6 7 3 6 11 11 6 7 9 10 11 11 11 10 10 10 9 7 7 10 11 9 8 6 7 8 8 7 7 7 7 7 7 8 8 8 8 7
4 3 5 6 4 3 5 3 5 7 9 12 13 14 13 13 12 11 11 11 10 10 9 7 8 11 11 9 7 7 9 9 8 7 7 7 8 7 8 8 8 8 8 7
6 5 4 2 2 2 4 6 5 7 10 15 16 14 13 11 10 10 11 10 10 11 11 8 8 9 10 7 7 9 10 10 8 8 8 8 8 8 7 7 6 6 6 6
4 2 1 3 4 5 6 6 7 10 12 14 15 14 13 11 10 9 10 10 11 11 11 8 7 8 8 7 9 10 10 9 8 9 9 9 8 6 6 6 6 6 6 5
3 2 4 6 5 6 7 9 10 11 10 12 15 14 13 11 10 9 9 9 10 10 10 9 8 8 7 7 9 11 10 9 8 8 9 9 9 8 7 5 5 6 5 5
3 4 4 1 1 5 8 8 8 11 11 10 12 12 11 11 10 9 9 9 10 10 10 9 8 8 7 7 9 10 9 8 7 7 7 8 9 9 13 11 12 11 9 8
4 3 4 3 2 4 7 7 8 10 11 11 9 11 12 10 9 10 9 9 10 9 9 9 8 8 6 6 8 9 9 8 6 7 7 7 7 8 8 9 13 13 12 12
4 6 5 3 3 4 7 9 10 10 10 11 10 11 11 11 10 10 10 9 9 9 9 9 8 7 6 7 8 8 8 8 8 6 7 7 6 6 6 7 6 6 8 11
4 5 4 5 6 6 7 10 11 10 10 10 10 11 11 11 11 9 9 9 10 9 8 8 8 6 6 7 8 8 7 6 7 7 6 6 6 6 6 7 6 5 4 6
4 5 5 7 6 5 7 9 10 9 9 9 9 10 10 11 10 9 9 9 9 9 7 7 7 5 6 7 8 7 7 10 9 8 7 6 6 6 6 6 5 5 4 3
6 4 4 6 5 5 6 7 8 9 9 10 10 10 11 11 11 9 8 8 8 7 6 7 6 5 6 7 8 7 7 8 11 8 6 6 6 6 5 5 5 4 3 3
6 7 7 7 7 6 6 7 8 9 9 10 11 11 11 11 10 9 9 9 8 7 6 5 6 6 6 7 7 7 7 7 6 7 6 6 6 6 6 5 5 5 3 4
4 5 5 6 6 7 8 8 8 8 9 11 12 11 10 10 10 10 9 9 9 7 5 6 9 8 7 7 8 7 7 8 7 6 6 8 7 6 6 5 5 5 4 4
4 4 6 5 6 7 8 8 9 9 9 11 12 12 11 10 10 10 9 7 5 4 6 7 7 7 7 7 9 7 7 8 8 7 6 6 6 6 6 6 6 5 5 4
5 6 7 7 7 8 8 9 9 10 9 10 12 13 12 11 10 9 9 7 4 6 8 9 7 6 6 7 9 7 7 7 7 6 6 6 6 6 5 5 5 5 4 4
5 7 7 8 9 8 7 8 9 10 11 10 11 12 12 11 10 8 7 5 6 9 7 6 5 7 8 9 6 7 7 7 6 6 6 6 6 5 5 5 4 4 4 4
5 7 7 8 9 8 8 8 9 10 11 11 12 12 11 9 8 8 7 4 6 9 7 6 8 11 11 8 6 7 7 7 6 6 6 5 5 5 5 5 4 4 4 3
6 7 7 8 8 9 9 8 9 9 10 10 10 10 10 9 7 5 6 9 10 10 7 8 11 11 9 6 6 6 6 6 6 6 5 5 5 5 4 4 4 3 3 4
7 8 9 9 9 8 9 10 11 10 10 9 9 9 7 7 7 7 7 8 10 9 7 8 9 9 6 6 6 6 5 5 6 6 5 5 4 4 4 4 4 4 3 3
6 7 7 7 7 7 8 8 8 8 8 9 8 7 7 7 8 7 7 7 8 8 6 5 6 6 5 5 6 6 5 5 6 5 5 5 5 4 4 4 4 3 3 3
7 7 7 7 6 6 7 7 8 8 8 9 9 7 8 8 7 7 7 6 6 5 5 4 5 5 5 5 5 5 5 5 5 5 5 5 4 4 4 4 4 4 4 4
Wind_Direction
207 232 205 206 213 197 176 176 177 206 191 204 179 155 143 128 121 119 118 119 119 117 119 123 122 132 137 137 137 135 131 131 136 132 123 112 105 109 110 107 107 103 95 87
355 349 322 272 238 213 195 174 172 163 202 202 152 136 132 133 133 132 132 130 125 123 123 121 121 124 121 121 124 126 127 131 128 119 112 101 90 87 93 94 90 89 90 86
333 343 36 291 241 214 203 184 165 181 196 148 137 146 151 145 136 139 137 130 127 126 123 121 124 121 117 117 113 113 118 120 118 119 112 103 99 87 85 92 92 89 88 87
85 59 203 253 260 167 158 169 155 149 151 148 142 131 119 128 125 125 129 128 123 120 116 110 109 111 108 107 106 106 106 107 111 114 111 105 98 99 97 94 93 90 81 81
108 129 287 309 333 68 138 165 142 135 130 124 114 90 69 93 121 130 132 129 123 120 116 109 106 111 108 103 101 100 99 98 104 111 111 108 106 107 105 99 90 84 78 76
113 134 203 269 302 298 110 105 292 135 139 139 121 117 154 136 117 114 111 111 112 110 107 106 105 107 104 101 97 96 97 95 94 99 104 104 106 106 99 96 93 88 76 69
127 157 258 280 306 10 125 194 211 139 142 139 128 144 143 125 114 116 116 114 111 107 103 104 106 106 103 101 99 101 98 92 85 88 98 101 99 98 97 96 91 84 77 65
134 154 249 303 9 103 186 172 126 118 122 118 114 116 119 119 120 120 117 115 112 107 100 94 100 105 103 103 104 100 96 90 82 78 89 95 96 93 93 96 93 87 80 68
168 194 236 316 111 146 129 106 105 115 118 120 119 122 120 119 120 117 116 114 112 111 104 94 93 104 110 110 105 99 94 87 80 75 73 80 91 97 94 91 93 89 83 77
93 85 80 54 63 66 80 92 100 114 121 120 122 124 120 118 115 112 113 116 116 114 111 105 100 101 108 110 106 100 95 90 86 84 78 72 71 78 91 95 96 93 89 83
87 119 57 33 51 73 75 87 94 103 114 121 122 124 124 121 118 114 110 111 115 117 117 114 107 102 102 106 109 104 101 98 93 91 92 83 74 64 74 70 100 108 103 100
188 205 144 156 9 90 94 95 109 114 109 113 120 122 120 119 118 118 115 114 113 113 114 112 110 105 101 105 112 112 109 104 103 105 101 98 96 79 59 70 73 80 90 97
165 153 133 128 63 89 109 109 110 114 120 118 115 120 119 117 116 118 117 116 118 118 117 117 116 113 108 107 111 114 117 117 113 112 113 112 109 107 95 65 63 66 73 79
102 95 88 99 103 97 109 109 107 105 108 114 116 117 116 115 116 117 119 120 119 116 116 119 120 120 119 116 115 115 116 119 119 116 116 114 110 109 109 107 91 63 54 66
52 78 123 115 96 92 101 109 109 108 109 110 115 117 118 119 121 120 119 117 115 113 114 117 119 122 124 122 120 120 119 120 117 115 113 110 108 103 99 97 97 91 74 57
90 80 103 110 109 103 113 120 120 120 118 116 116 118 119 119 118 116 116 119 121 121 122 121 123 131 128 125 123 122 123 125 123 121 118 114 111 110 107 105 101 96 89 80
130 139 129 121 128 131 131 127 129 130 126 124 125 122 118 117 115 114 114 113 115 116 119 122 125 125 123 124 125 124 123 127 125 121 121 122 121 119 116 113 110 101 91 90
147 154 153 147 147 146 136 128 128 131 132 131 126 122 122 126 127 125 121 114 107 100 100 112 117 114 113 116 120 120 120 121 123 124 123 121 121 120 118 118 116 110 95 84
123 131 134 136 142 139 136 134 133 131 131 131 129 128 127 127 127 125 121 117 118 117 116 114 113 108 109 113 116 116 118 116 113 113 115 116 114 115 118 119 115 111 106 95
122 129 128 129 127 126 127 129 129 128 131 129 126 124 122 123 124 122 118 112 117 128 123 113 109 106 107 110 111 113 116 117 117 116 112 112 115 116 115 115 115 114 113 110
135 128 124 126 123 123 126 128 130 131 131 129 130 130 128 125 123 121 120 114 105 106 106 106 105 106 103 110 109 112 115 116 117 119 119 119 120 118 115 117 119 120 121 119
135 129 129 128 125 123 122 126 129 129 128 126 125 126 125 123 119 110 103 118 122 113 105 101 103 106 108 107 106 109 110 110 110 113 117 121 123 124 125 124 123 123 123 123
126 127 127 130 130 129 123 125 129 130 131 132 132 132 129 128 129 127 121 116 115 111 107 107 110 107 105 103 106 108 108 107 109 112 115 118 121 124 127 128 127 126 124 122
119 121 122 122 123 122 124 123 119 119 120 122 126 127 127 123 112 106 117 123 121 116 111 114 112 111 109 109 110 110 111 114 116 118 120 119 118 119 123 128 126 122 125 124
120 122 121 123 126 129 129 125 118 116 116 115 115 115 116 121 126 126 121 125 127 120 115 117 114 110 109 111 113 114 115 116 118 119 118 120 121 122 124 129 132 131 129 129
122 123 122 123 127 131 133 130 128 127 124 121 118 119 117 117 120 121 121 126 127 123 120 119 118 113 114 117 119 119 117 115 114 115 120 122 120 119 119 120 121 122 131 135
113 115 115 114 116 122 125 125 128 130 131 131 128 127 127 126 124 126 126 128 129 124 121 119 118 119 118 117 115 115 115 116 118 121 121 120 122 122 124 123 122 124 126 127
Height
1477 1472 1471 1473 1474 1476 1486 1494 1503 1500 1497 1491 1488 1489 1490 1492 1495 1498 1501 1505 1507 1509 1512 1513 1516 1518 1519 1521 1523 1524 1525 1526 1527 1529 1530 1530 1530 1531 1531 1532 1532 1533 1533 1534
1476 1469 1469 1473 1471 1472 1476 1481 1486 1488 1491 1483 1484 1487 1491 1493 1496 1499 1502 1505 1507 1509 1511 1513 1515 1517 1519 1521 1523 1524 1525 1526 1527 1528 1529 1529 1529 1529 1529 1530 1531 1532 1532 1533
1487 1477 1474 1484 1473 1471 1473 1472 1477 1486 1485 1482 1485 1487 1489 1493 1496 1499 1501 1504 1507 1509 1511 1514 1516 1518 1519 1521 1523 1524 1524 1526 1527 1528 1528 1528 1529 1528 1529 1530 1531 1532 1532 1533
1489 1485 1496 1483 1464 1463 1467 1469 1469 1472 1476 1478 1481 1486 1490 1493 1496 1499 1502 1505 1508 1511 1513 1514 1516 1518 1520 1521 1522 1523 1524 1525 1526 1527 1528 1528 1529 1529 1529 1530 1531 1532 1532 1533
1495 1497 1490 1475 1466 1466 1470 1475 1469 1472 1476 1481 1483 1487 1494 1496 1497 1500 1503 1506 1509 1511 1513 1515 1517 1518 1519 1521 1522 1523 1524 1525 1525 1526 1527 1528 1529 1529 1530 1531 1531 1532 1533 1533
1493 1496 1497 1484 1467 1463 1467 1483 1473 1471 1475 1479 1481 1492 1498 1498 1499 1501 1504 1507 1510 1512 1514 1516 1517 1518 1519 1520 1522 1522 1523 1524 1525 1527 1527 1528 1529 1529 1530 1531 1532 1532 1533 1533
1492 1495 1489 1474 1467 1464 1483 1485 1474 1473 1474 1477 1480 1486 1493 1496 1499 1502 1504 1507 1510 1512 1514 1516 1517 1518 1519 1521 1522 1523 1524 1525 1526 1527 1528 1528 1529 1530 1531 1531 1532 1532 1533 1534
1493 1497 1493 1472 1468 1473 1476 1472 1472 1474 1476 1478 1482 1487 1492 1496 1499 1502 1505 1508 1511 1513 1514 1516 1518 1518 1519 1521 1523 1524 1525 1526 1527 1527 1528 1529 1530 1530 1531 1532 1533 1533 1533 1534
1484 1487 1477 1472 1471 1471 1471 1473 1474 1476 1478 1480 1483 1489 1493 1497 1501 1503 1506 1509 1511 1513 1515 1517 1518 1520 1520 1522 1523 1524 1525 1526 1528 1528 1529 1530 1531 1532 1532 1533 1533 1534 1534 1534
1478 1478 1475 1473 1473 1472 1473 1474 1476 1478 1481 1482 1486 1490 1495 1498 1501 1504 1507 1509 1511 1514 1516 1517 1519 1521 1522 1523 1524 1526 1526 1527 1529 1529 1530 1531 1532 1533 1533 1534 1534 1535 1535 1535
1479 1478 1476 1475 1475 1475 1475 1476 1478 1480 1483 1485 1488 1492 1496 1499 1502 1504 1507 1510 1512 1514 1516 1518 1520 1521 1523 1524 1525 1526 1527 1529 1530 1531 1532 1532 1533 1534 1534 1535 1537 1537 1537 1537
1480 1477 1477 1478 1478 1478 1477 1479 1481 1483 1486 1488 1490 1493 1496 1499 1502 1506 1508 1511 1513 1515 1517 1519 1521 1522 1524 1525 1527 1527 1528 1530 1531 1532 1533 1534 1535 1536 1537 1538 1539 1539 1539 1539
1474 1475 1477 1478 1479 1479 1480 1481 1484 1486 1487 1490 1493 1495 1498 1500 1503 1506 1509 1512 1514 1516 1518 1520 1522 1523 1525 1526 1528 1528 1529 1531 1532 1533 1535 1536 1537 1538 1539 1540 1541 1541 1542 1542
1474 1475 1477 1478 1480 1482 1483 1484 1486 1488 1490 1491 1494 1497 1499 1501 1505 1507 1510 1512 1515 1517 1518 1520 1522 1524 1525 1527 1528 1530 1531 1532 1534 1535 1536 1538 1539 1540 1541 1541 1542 1543 1544 1545
1475 1476 1478 1479 1481 1483 1484 1485 1487 1489 1491 1494 1496 1498 1500 1503 1506 1508 1511 1513 1515 1517 1519 1521 1523 1525 1527 1528 1530 1531 1533 1534 1535 1537 1538 1539 1541 1542 1543 1543 1544 1545 1546 1546
1476 1477 1479 1479 1481 1483 1485 1486 1487 1490 1492 1494 1497 1499 1501 1504 1507 1509 1512 1514 1516 1517 1520 1522 1523 1525 1528 1529 1531 1532 1534 1535 1537 1538 1540 1541 1542 1543 1544 1545 1546 1546 1547 1548
1476 1478 1479 1481 1483 1485 1485 1487 1488 1490 1493 1495 1497 1500 1502 1505 1507 1510 1512 1515 1517 1518 1520 1522 1524 1526 1528 1530 1531 1533 1535 1537 1538 1540 1541 1542 1544 1545 1546 1547 1548 1548 1549 1549
1475 1477 1479 1480 1483 1484 1486 1488 1489 1491 1494 1496 1498 1501 1503 1505 1508 1511 1513 1515 1517 1519 1521 1523 1525 1527 1529 1531 1533 1534 1536 1538 1539 1541 1542 1544 1545 1546 1548 1549 1549 1550 1550 1551
1474 1476 1479 1480 1482 1483 1485 1488 1490 1492 1495 1497 1499 1502 1504 1506 1509 1512 1514 1515 1517 1519 1522 1524 1526 1528 1530 1532 1534 1536 1537 1539 1541 1542 1544 1545 1546 1548 1549 1550 1551 1552 1552 1552
1474 1476 1478 1480 1482 1483 1485 1488 1490 1493 1495 1497 1499 1502 1505 1507 1510 1512 1514 1516 1518 1520 1522 1525 1527 1529 1531 1533 1535 1537 1538 1540 1542 1544 1545 1547 1548 1549 1550 1551 1552 1552 1553 1553
1473 1475 1477 1479 1481 1483 1485 1488 1490 1493 1495 1498 1500 1502 1505 1508 1511 1513 1515 1517 1520 1522 1524 1526 1528 1530 1532 1534 1536 1538 1540 1541 1543 1545 1546 1548 1549 1550 1551 1552 1552 1553 1554 1554
1472 1474 1476 1477 1479 1482 1485 1488 1490 1493 1495 1498 1501 1503 1506 1509 1511 1514 1516 1518 1520 1523 1525 1527 1529 1531 1533 1535 1537 1539 1541 1543 1544 1546 1547 1548 1550 1551 1552 1552 1553 1554 1554 1555
1471 1473 1475 1477 1479 1482 1485 1488 1490 1493 1496 1499 1502 1504 1506 1509 1512 1514 1517 1520 1522 1525 1527 1530 1532 1534 1535 1537 1539 1540 1542 1544 1545 1547 1548 1549 1550 1551 1552 1553 1554 1555 1555 1555
1470 1473 1475 1478 1480 1483 1485 1488 1491 1494 1497 1500 1503 1506 1508 1510 1514 1517 1519 1522 1524 1527 1530 1532 1534 1536 1538 1539 1541 1542 1544 1546 1547 1548 1550 1550 1551 1552 1553 1554 1555 1555 1555 1556
1471 1473 1476 1478 1481 1483 1486 1489 1493 1496 1499 1502 1505 1508 1510 1513 1515 1518 1521 1524 1527 1529 1532 1534 1536 1538 1540 1541 1543 1544 1546 1547 1549 1550 1551 1552 1552 1553 1554 1555 1555 1556 1556 1556
1473 1475 1478 1480 1482 1485 1488 1491 1494 1497 1500 1503 1507 1510 1512 1515 1518 1521 1523 1526 1529 1531 1533 1536 1538 1540 1542 1543 1545 1546 1548 1549 1550 1551 1552 1553 1554 1554 1555 1555 1556 1556 1556 1556
1475 1478 1480 1483 1485 1488 1490 1493 1496 1499 1502 1505 1508 1511 1514 1517 1520 1523 1526 1528 1531 1533 1535 1538 1540 1542 1544 1545 1547 1548 1550 1551 1552 1553 1553 1554 1555 1555 1556 1556 1556 1556 1556 1556